SQ2CET-13 Weather Reports


time (UTC)temp
C
wind
direction
speed
KPH
gust
KPH
rain 1hr
cm
rain 24hr
cm
rain mn
cm
humidity
%
barometer
mb
20260508223033 5 0.0 1.6 0.00 0.00 0.00 92 1023.6
20260508222055 5 201 0.0 3.2 0.00 0.00 0.00 92 1023.7
20260508221119 4 0.0 0.0 0.00 0.00 0.00 92 1023.6
20260508220039 4 0.0 0.0 0.00 0.00 0.00 92 1023.6
20260508215102 5 0.0 0.0 0.00 0.00 0.00 91 1023.6
20260508214023 4 0.0 0.0 0.00 0.00 0.00 91 1023.7
20260508213106 5 0.0 1.6 0.00 0.00 0.00 91 1023.6
20260508212111 5 0.0 0.0 0.00 0.00 0.00 90 1023.7
20260508211032 6 0.0 0.0 0.00 0.00 0.00 90 1023.6
20260508210054 6 203 0.0 1.6 0.00 0.00 0.00 90 1023.6
20260508205120 6 0.0 0.0 0.00 0.00 0.00 90 1023.5
20260508204100 6 219 0.0 3.2 0.00 0.00 0.00 90 1023.4
20260508203103 5 0.0 0.0 0.00 0.00 0.00 89 1023.4
20260508202104 5 0.0 1.6 0.00 0.00 0.00 89 1023.3
20260508201047 5 0.0 0.0 0.00 0.00 0.00 89 1023.3
20260508200110 6 0.0 0.0 0.00 0.00 0.00 88 1023.3
20260508195031 6 0.0 0.0 0.00 0.00 0.00 87 1023.3
20260508194115 6 0.0 1.6 0.00 0.00 0.00 87 1023.3
20260508193118 6 0.0 0.0 0.00 0.00 0.00 86 1023.3
20260508192100 6 0.0 1.6 0.00 0.00 0.00 85 1023.2
20260508191104 7 1 1.6 4.8 0.00 0.00 0.00 83 1023.3
20260508190023 7 338 0.0 4.8 0.00 0.00 0.00 81 1023.2
20260508185046 7 0.0 3.2 0.00 0.00 0.00 79 1023.2
20260508184110 8 17 0.0 3.2 0.00 0.00 0.00 77 1023.1
20260508183051 8 0.0 3.2 0.00 0.00 0.00 74 1023.1
20260508182117 9 0.0 4.8 0.00 0.00 0.00 72 1022.9
20260508181138 10 269 3.2 4.8 0.00 0.00 0.00 69 1022.8
20260508180059 10 12 1.6 11.3 0.00 0.00 0.00 65 1022.9
20260508175123 11 314 1.6 6.4 0.00 0.00 0.00 63 1022.8
20260508174023 12 30 1.6 4.8 0.00 0.00 0.00 59 1022.8
20260508173048 12 35 1.6 6.4 0.00 0.00 0.00 58 1022.8
20260508172111 13 335 1.6 8.0 0.00 0.00 0.00 56 1022.8
20260508171031 12 224 0.0 4.8 0.00 0.00 0.00 58 1022.8
20260508170047 12 182 0.0 3.2 0.00 0.00 0.00 60 1022.8
20260508165107 11 228 1.6 4.8 0.00 0.00 0.00 61 1022.7
20260508164024 11 343 1.6 8.0 0.00 0.00 0.00 59 1022.6
20260508163039 11 34 1.6 4.8 0.00 0.00 0.00 59 1022.7
20260508162055 11 13 3.2 6.4 0.00 0.00 0.00 58 1022.7
20260508161121 13 278 3.2 9.7 0.00 0.00 0.00 54 1022.7
20260508160040 13 323 3.2 11.3 0.00 0.00 0.00 52 1022.7
20260508155101 13 0 4.8 11.3 0.00 0.00 0.00 50 1022.7
20260508154123 14 336 3.2 11.3 0.00 0.00 0.00 49 1022.7
20260508153033 12 323 4.8 14.5 0.00 0.00 0.00 53 1022.7
20260508152055 13 10 6.4 12.9 0.00 0.00 0.00 48 1022.8
20260508151115 13 324 3.2 12.9 0.00 0.00 0.00 50 1022.8
20260508150123 14 43 1.6 8.0 0.00 0.00 0.00 46 1022.8
20260508145031 13 315 3.2 8.0 0.00 0.00 0.00 47 1022.8
20260508144049 11 10 3.2 11.3 0.00 0.00 0.00 51 1023.0
20260508143104 12 359 4.8 16.1 0.00 0.00 0.00 51 1023.0
20260508142026 12 325 3.2 9.7 0.00 0.00 0.00 53 1023.0
20260508141051 12 16 3.2 12.9 0.00 0.00 0.00 53 1023.0
20260508140110 12 244 1.6 9.7 0.00 0.00 0.00 52 1023.1
20260508135032 12 14 3.2 9.7 0.00 0.00 0.00 51 1023.1
20260508134055 12 3 3.2 25.7 0.00 0.00 0.00 53 1023.1
20260508133120 13 313 3.2 9.7 0.00 0.00 0.00 51 1022.9
20260508132039 12 334 4.8 16.1 0.00 0.00 0.00 51 1023.1
20260508131058 13 309 1.6 14.5 0.00 0.00 0.00 49 1023.2
20260508130121 13 24 4.8 14.5 0.00 0.00 0.00 50 1023.0
20260508125039 13 2 4.8 16.1 0.00 0.00 0.00 50 1023.1
20260508124055 13 31 3.2 14.5 0.00 0.00 0.00 52 1023.1
20260508123116 12 12 8.0 12.9 0.00 0.00 0.00 53 1023.1
20260508122034 13 117 4.8 12.9 0.00 0.00 0.00 52 1023.1
20260508121057 13 95 4.8 11.3 0.00 0.00 0.00 52 1023.1
20260508120111 12 7 4.8 9.7 0.00 0.00 0.00 53 1023.0
20260508115033 12 65 3.2 20.9 0.00 0.00 0.00 53 1022.9
20260508114055 12 16 6.4 11.3 0.00 0.00 0.00 51 1022.9
20260508113141 12 27 4.8 12.9 0.00 0.00 0.00 50 1023.1
20260508112039 13 185 4.8 19.3 0.00 0.00 0.00 46 1023.2
20260508111103 13 135 3.2 17.7 0.00 0.00 0.00 48 1023.0
20260508110043 12 16 4.8 16.1 0.00 0.00 0.00 50 1022.9
20260508105039 12 31 8.0 19.3 0.00 0.00 0.00 50 1022.9
20260508104104 13 15 6.4 19.3 0.00 0.00 0.00 48 1022.9
20260508103024 13 12 6.4 12.9 0.00 0.00 0.00 49 1022.9
20260508102108 13 15 4.8 12.9 0.00 0.00 0.00 49 1022.8
20260508101113 13 232 3.2 16.1 0.00 0.00 0.00 52 1022.9
20260508100051 12 312 1.6 20.9 0.00 0.00 0.00 54 1022.9
20260508095048 12 140 3.2 6.4 0.00 0.00 0.00 57 1022.9
20260508094113 11 4 1.6 8.0 0.00 0.00 0.00 60 1022.9
20260508093053 11 83 4.8 8.0 0.00 0.00 0.00 58 1022.9
20260508092057 11 139 4.8 12.9 0.00 0.00 0.00 56 1023.0
20260508091122 12 355 3.2 11.3 0.00 0.00 0.00 53 1022.9
20260508090040 12 299 3.2 9.7 0.00 0.00 0.00 54 1023.0
20260508085104 12 5 3.2 9.7 0.00 0.00 0.00 56 1022.9
20260508084023 12 197 1.6 4.8 0.00 0.00 0.00 58 1022.9
20260508083047 11 6 1.6 9.7 0.00 0.00 0.00 60 1022.9
20260508082112 11 164 0.0 6.4 0.00 0.00 0.00 60 1022.8
20260508081026 11 314 1.6 6.4 0.00 0.00 0.00 60 1022.8
20260508080049 11 145 1.6 6.4 0.00 0.00 0.00 60 1022.8
20260508075155 10 344 3.2 8.0 0.00 0.00 0.00 63 1022.6
20260508074035 11 26 3.2 11.3 0.00 0.00 0.00 61 1022.7
20260508073056 10 24 3.2 6.4 0.00 0.00 0.00 63 1022.7
20260508072119 10 14 3.2 8.0 0.00 0.00 0.00 64 1022.6
20260508071032 10 30 3.2 11.3 0.00 0.00 0.00 63 1022.5
20260508070056 10 20 0.0 6.4 0.00 0.00 0.00 66 1022.5
20260508065120 10 52 3.2 6.4 0.00 0.00 0.00 67 1022.4
20260508064032 10 24 1.6 6.4 0.00 0.00 0.00 70 1022.3
20260508063047 9 25 1.6 4.8 0.00 0.00 0.00 77 1022.4
20260508062112 8 344 0.0 6.4 0.00 0.00 0.00 83 1022.3
20260508061031 8 324 1.6 6.4 0.00 0.00 0.00 82 1022.2
20260508060056 8 313 1.6 4.8 0.00 0.00 0.00 83 1022.1
20260508055121 7 312 1.6 4.8 0.00 0.00 0.00 85 1022.1
20260508054052 7 0.0 4.8 0.00 0.00 0.00 88 1022.0
20260508053057 6 290 0.0 4.8 0.00 0.00 0.00 88 1021.8
20260508052119 7 262 0.0 3.2 0.00 0.00 0.00 89 1021.8
20260508051039 6 326 1.6 4.8 0.00 0.00 0.00 89 1021.9
20260508050103 6 294 1.6 3.2 0.00 0.00 0.00 89 1021.8
20260508045027 6 301 1.6 4.8 0.00 0.00 0.00 89 1021.9
20260508044129 7 249 1.6 3.2 0.00 0.00 0.00 90 1021.8
20260508043112 6 47 0.0 3.2 0.00 0.00 0.00 90 1021.7
20260508042032 6 244 0.0 3.2 0.00 0.00 0.00 91 1021.6
20260508041057 6 0.0 4.8 0.00 0.00 0.00 91 1021.7
20260508040120 5 12 1.6 8.0 0.00 0.00 0.00 91 1021.6
20260508035040 5 11 1.6 3.2 0.00 0.00 0.00 91 1021.5
20260508034124 5 0.0 3.2 0.00 0.00 0.00 91 1021.4
20260508033023 5 0.0 4.8 0.00 0.00 0.00 91 1021.1
20260508032048 5 35 0.0 4.8 0.00 0.00 0.00 91 1021.1
20260508031112 5 74 1.6 3.2 0.00 0.00 0.00 91 1021.1
20260508030036 5 26 1.6 4.8 0.00 0.00 0.00 91 1021.1
20260508025056 5 27 1.6 4.8 0.00 0.00 0.00 91 1021.1
20260508024112 5 340 0.0 8.0 0.00 0.00 0.00 90 1021.0
20260508023032 5 357 1.6 3.2 0.00 0.00 0.00 90 1021.2
20260508022057 5 350 1.6 4.8 0.00 0.00 0.00 91 1021.0
20260508021119 5 0.0 3.2 0.00 0.00 0.00 91 1021.0
20260508020039 5 6 3.2 4.8 0.00 0.00 0.00 92 1021.0
20260508015104 5 40 1.6 4.8 0.00 0.00 0.00 92 1021.0
20260508014023 5 31 1.6 3.2 0.00 0.00 0.00 92 1020.9
20260508013150 5 13 1.6 4.8 0.00 0.00 0.00 91 1020.9
20260508012112 5 31 3.2 4.8 0.00 0.00 0.00 91 1021.0
20260508011032 5 26 1.6 3.2 0.00 0.00 0.00 91 1020.9
20260508010056 6 353 0.0 3.2 0.00 0.00 0.00 91 1020.8
20260508005119 6 121 0.0 3.2 0.00 0.00 0.00 91 1020.9
20260508004039 6 155 0.0 3.2 0.00 0.00 0.00 91 1020.7
20260508003103 6 194 1.6 3.2 0.00 0.00 0.00 91 1020.7
20260508002024 6 0.0 3.2 0.00 0.00 0.00 91 1020.8
20260508001048 6 0.0 1.6 0.00 0.00 0.00 91 1020.8
20260508000132 6 0.0 1.6 0.00 0.00 0.00 91 1020.8
20260507235031 6 0.0 0.0 0.00 0.00 0.00 91 1020.8
20260507234055 6 210 0.0 1.6 0.00 0.00 0.00 92 1020.7
20260507233140 6 20 0.0 1.6 0.00 0.00 0.00 92 1020.6
20260507232040 5 232 1.6 3.2 0.00 0.00 0.00 92 1020.5
20260507231104 5 0.0 3.2 0.00 0.00 0.00 92 1020.4
20260507230023 5 26 1.6 4.8 0.00 0.00 0.00 92 1020.5
20260507225107 5 11 1.6 6.4 0.00 0.00 0.00 91 1020.5
20260507224111 5 346 4.8 6.4 0.00 0.00 0.00 91 1020.6